Time,TemperatureF,DewpointF,PressureIn,WindDirection,WindDirectionDegrees,WindSpeedMPH,WindSpeedGustMPH,Humidity,HourlyPrecipIn,Conditions,Clouds,dailyrainin,SoftwareType,DateUTC
2013-11-17 00:09:00,77.0,73.0,30.03,ESE,106,0.0,1.0,87,0.00,,,0.00,weatherlink.com 1.10,2013-11-17 05:09:00,
2013-11-17 00:24:00,77.1,73.0,30.02,East,95,0.0,1.0,88,0.00,,,0.00,weatherlink.com 1.10,2013-11-17 05:24:00,
2013-11-17 00:40:00,76.8,73.0,30.02,ESE,108,0.0,0.0,88,0.00,,,0.00,weatherlink.com 1.10,2013-11-17 05:40:00,
2013-11-17 00:55:00,76.7,73.0,30.02,ENE,77,0.0,1.0,88,0.00,,,0.00,weatherlink.com 1.10,2013-11-17 05:55:00,
2013-11-17 01:10:00,77.2,73.0,30.02,ENE,77,2.0,5.0,86,0.00,,,0.00,weatherlink.com 1.10,2013-11-17 06:10:00,
2013-11-17 01:25:00,77.4,73.0,30.02,ESE,103,0.0,4.0,85,0.00,,,0.00,weatherlink.com 1.10,2013-11-17 06:25:00,
2013-11-17 01:40:00,77.3,73.0,30.02,SSE,150,0.0,5.0,85,0.00,,,0.00,weatherlink.com 1.10,2013-11-17 06:40:00,
2013-11-17 01:55:00,77.1,73.0,30.01,SE,130,0.0,2.0,86,0.00,,,0.00,weatherlink.com 1.10,2013-11-17 06:55:00,
2013-11-17 02:10:00,77.0,72.0,30.01,ESE,122,0.0,2.0,85,0.00,,,0.00,weatherlink.com 1.10,2013-11-17 07:10:00,
2013-11-17 02:25:00,77.2,72.0,30.01,East,101,0.0,2.0,84,0.00,,,0.00,weatherlink.com 1.10,2013-11-17 07:25:00,
2013-11-17 02:40:00,77.3,71.0,30.01,SSE,149,0.0,4.0,82,0.00,,,0.00,weatherlink.com 1.10,2013-11-17 07:40:00,
2013-11-17 02:55:00,77.2,71.0,30.01,East,91,2.0,6.0,82,0.00,,,0.00,weatherlink.com 1.10,2013-11-17 07:55:00,
2013-11-17 03:10:00,77.0,72.0,30.01,SSE,151,0.0,3.0,83,0.00,,,0.00,weatherlink.com 1.10,2013-11-17 08:10:00,
2013-11-17 03:25:00,76.7,71.0,30.01,SE,131,0.0,2.0,82,0.00,,,0.00,weatherlink.com 1.10,2013-11-17 08:25:00,
2013-11-17 03:40:00,76.5,71.0,30.00,ESE,105,0.0,2.0,82,0.00,,,0.00,weatherlink.com 1.10,2013-11-17 08:40:00,
2013-11-17 03:55:00,76.4,71.0,30.00,ESE,111,0.0,0.0,82,0.00,,,0.00,weatherlink.com 1.10,2013-11-17 08:55:00,
2013-11-17 04:10:00,76.0,70.0,30.00,ESE,118,0.0,0.0,82,0.00,,,0.00,weatherlink.com 1.10,2013-11-17 09:10:00,
2013-11-17 04:25:00,75.7,70.0,30.00,ESE,109,0.0,0.0,82,0.00,,,0.00,weatherlink.com 1.10,2013-11-17 09:25:00,
2013-11-17 04:40:00,75.5,70.0,30.00,SE,131,0.0,0.0,83,0.00,,,0.00,weatherlink.com 1.10,2013-11-17 09:40:00,
2013-11-17 04:55:00,75.1,70.0,30.00,ESE,103,0.0,0.0,84,0.00,,,0.00,weatherlink.com 1.10,2013-11-17 09:55:00,
2013-11-17 05:10:00,75.2,71.0,30.00,SE,136,0.0,1.0,85,0.00,,,0.00,weatherlink.com 1.10,2013-11-17 10:10:00,
2013-11-17 05:25:00,75.6,71.0,30.00,SE,124,0.0,1.0,85,0.00,,,0.00,weatherlink.com 1.10,2013-11-17 10:25:00,
2013-11-17 05:40:00,75.3,71.0,30.00,ESE,118,0.0,0.0,86,0.00,,,0.00,weatherlink.com 1.10,2013-11-17 10:40:00,
2013-11-17 05:55:00,74.9,71.0,30.00,SE,139,0.0,0.0,87,0.00,,,0.00,weatherlink.com 1.10,2013-11-17 10:55:00,
2013-11-17 06:10:00,74.5,71.0,30.01,East,93,0.0,0.0,88,0.00,,,0.00,weatherlink.com 1.10,2013-11-17 11:10:00,
2013-11-17 06:25:00,74.6,71.0,30.01,SE,132,0.0,0.0,88,0.00,,,0.00,weatherlink.com 1.10,2013-11-17 11:25:00,
2013-11-17 06:40:00,74.6,71.0,30.01,ESE,108,0.0,0.0,89,0.00,,,0.00,weatherlink.com 1.10,2013-11-17 11:40:00,
2013-11-17 06:55:00,74.4,71.0,30.02,SE,128,0.0,0.0,90,0.00,,,0.00,weatherlink.com 1.10,2013-11-17 11:55:00,
2013-11-17 07:10:00,75.1,72.0,30.02,ESE,121,0.0,0.0,89,0.00,,,0.00,weatherlink.com 1.10,2013-11-17 12:10:00,
2013-11-17 07:25:00,76.5,72.0,30.02,ESE,117,0.0,0.0,86,0.00,,,0.00,weatherlink.com 1.10,2013-11-17 12:25:00,
2013-11-17 07:40:00,77.7,73.0,30.03,SSE,155,0.0,1.0,84,0.00,,,0.00,weatherlink.com 1.10,2013-11-17 12:40:00,
2013-11-17 07:55:00,78.9,73.0,30.03,East,84,4.0,8.0,81,0.00,,,0.00,weatherlink.com 1.10,2013-11-17 12:55:00,
2013-11-17 08:10:00,79.3,72.0,30.03,SE,141,0.0,6.0,79,0.00,,,0.00,weatherlink.com 1.10,2013-11-17 13:10:00,
2013-11-17 08:25:00,80.3,73.0,30.04,East,83,5.0,5.0,77,0.00,,,0.00,weatherlink.com 1.10,2013-11-17 13:25:00,
2013-11-17 08:40:00,80.4,72.0,30.04,East,98,9.0,12.0,76,0.00,,,0.00,weatherlink.com 1.10,2013-11-17 13:40:00,
2013-11-17 08:55:00,81.0,73.0,30.04,ESE,117,9.0,9.0,76,0.00,,,0.00,weatherlink.com 1.10,2013-11-17 13:55:00,
2013-11-17 09:10:00,81.0,72.0,30.05,East,91,0.0,10.0,75,0.00,,,0.00,weatherlink.com 1.10,2013-11-17 14:10:00,
2013-11-17 09:25:00,81.2,72.0,30.05,ESE,107,5.0,9.0,74,0.00,,,0.00,weatherlink.com 1.10,2013-11-17 14:25:00,
2013-11-17 09:40:00,82.1,73.0,30.05,ESE,120,0.0,9.0,74,0.00,,,0.00,weatherlink.com 1.10,2013-11-17 14:40:00,
2013-11-17 09:55:00,80.9,73.0,30.06,SE,141,1.0,10.0,76,0.00,,,0.00,weatherlink.com 1.10,2013-11-17 14:55:00,
2013-11-17 10:10:00,81.4,73.0,30.05,ESE,103,0.0,9.0,76,0.00,,,0.00,weatherlink.com 1.10,2013-11-17 15:10:00,
2013-11-17 10:25:00,82.3,73.0,30.05,SSE,149,7.0,10.0,73,0.00,,,0.00,weatherlink.com 1.10,2013-11-17 15:25:00,
2013-11-17 10:40:00,82.5,73.0,30.05,East,101,4.0,8.0,74,0.00,,,0.00,weatherlink.com 1.10,2013-11-17 15:40:00,
2013-11-17 10:55:00,82.1,74.0,30.05,East,101,0.0,10.0,76,0.00,,,0.00,weatherlink.com 1.10,2013-11-17 15:55:00,
2013-11-17 11:10:00,82.6,74.0,30.04,ENE,77,6.0,10.0,76,0.00,,,0.00,weatherlink.com 1.10,2013-11-17 16:10:00,
2013-11-17 11:25:00,82.1,73.0,30.04,SE,129,1.0,10.0,74,0.00,,,0.00,weatherlink.com 1.10,2013-11-17 16:25:00,
2013-11-17 11:40:00,81.9,74.0,30.03,ESE,117,0.0,10.0,76,0.00,,,0.00,weatherlink.com 1.10,2013-11-17 16:40:00,
2013-11-17 11:55:00,83.5,74.0,30.03,SSE,153,0.0,10.0,72,0.00,,,0.00,weatherlink.com 1.10,2013-11-17 16:55:00,
2013-11-17 12:10:00,83.1,74.0,30.02,SSW,193,0.0,11.0,73,0.00,,,0.00,weatherlink.com 1.10,2013-11-17 17:10:00,
2013-11-17 12:25:00,83.3,73.0,30.02,East,84,0.0,11.0,72,0.00,,,0.00,weatherlink.com 1.10,2013-11-17 17:25:00,
2013-11-17 12:40:00,84.3,74.0,30.02,South,184,0.0,6.0,70,0.00,,,0.00,weatherlink.com 1.10,2013-11-17 17:40:00,
2013-11-17 12:55:00,83.7,73.0,30.01,SSE,159,1.0,9.0,70,0.00,,,0.00,weatherlink.com 1.10,2013-11-17 17:55:00,
2013-11-17 13:10:00,82.6,72.0,30.01,ESE,115,0.0,9.0,71,0.00,,,0.00,weatherlink.com 1.10,2013-11-17 18:10:00,
2013-11-17 13:25:00,84.2,73.0,30.00,ESE,121,0.0,7.0,69,0.00,,,0.00,weatherlink.com 1.10,2013-11-17 18:25:00,
2013-11-17 13:41:00,82.9,73.0,30.00,SSE,148,0.0,8.0,71,0.00,,,0.00,weatherlink.com 1.10,2013-11-17 18:41:00,
2013-11-17 13:56:00,83.0,72.0,30.00,SE,145,1.0,9.0,70,0.00,,,0.00,weatherlink.com 1.10,2013-11-17 18:56:00,
2013-11-17 14:11:00,82.5,72.0,29.99,SE,129,0.0,10.0,70,0.00,,,0.00,weatherlink.com 1.10,2013-11-17 19:11:00,
2013-11-17 14:26:00,82.5,72.0,29.99,South,176,0.0,4.0,71,0.00,,,0.00,weatherlink.com 1.10,2013-11-17 19:26:00,
2013-11-17 14:41:00,82.3,72.0,29.99,ESE,122,1.0,9.0,72,0.00,,,0.00,weatherlink.com 1.10,2013-11-17 19:41:00,
2013-11-17 14:56:00,82.0,73.0,29.98,SSE,162,0.0,7.0,73,0.00,,,0.00,weatherlink.com 1.10,2013-11-17 19:56:00,
2013-11-17 15:11:00,83.0,72.0,29.98,SE,131,1.0,10.0,70,0.00,,,0.00,weatherlink.com 1.10,2013-11-17 20:11:00,
2013-11-17 15:26:00,83.3,72.0,29.98,SE,146,0.0,7.0,68,0.00,,,0.00,weatherlink.com 1.10,2013-11-17 20:26:00,
2013-11-17 15:41:00,82.5,71.0,29.98,SE,146,0.0,8.0,68,0.00,,,0.00,weatherlink.com 1.10,2013-11-17 20:41:00,
2013-11-17 15:56:00,82.7,71.0,29.98,East,99,0.0,6.0,68,0.00,,,0.00,weatherlink.com 1.10,2013-11-17 20:56:00,
2013-11-17 16:11:00,82.9,70.0,29.98,SSW,197,4.0,8.0,66,0.00,,,0.00,weatherlink.com 1.10,2013-11-17 21:11:00,
2013-11-17 16:26:00,82.3,71.0,29.98,SE,126,5.0,5.0,68,0.00,,,0.00,weatherlink.com 1.10,2013-11-17 21:26:00,
2013-11-17 16:41:00,81.5,71.0,29.98,East,98,0.0,8.0,70,0.00,,,0.00,weatherlink.com 1.10,2013-11-17 21:41:00,
2013-11-17 16:56:00,80.5,71.0,29.98,ESE,108,0.0,8.0,72,0.00,,,0.00,weatherlink.com 1.10,2013-11-17 21:56:00,
2013-11-17 17:11:00,79.9,71.0,29.99,ESE,105,0.0,5.0,75,0.00,,,0.00,weatherlink.com 1.10,2013-11-17 22:11:00,
2013-11-17 17:26:00,79.4,71.0,29.99,ESE,117,0.0,1.0,75,0.00,,,0.00,weatherlink.com 1.10,2013-11-17 22:26:00,
2013-11-17 17:41:00,79.0,71.0,29.99,SSE,153,0.0,1.0,76,0.00,,,0.00,weatherlink.com 1.10,2013-11-17 22:41:00,
2013-11-17 17:56:00,78.7,71.0,30.00,SE,132,0.0,1.0,77,0.00,,,0.00,weatherlink.com 1.10,2013-11-17 22:56:00,
2013-11-17 18:11:00,78.4,71.0,30.00,SSE,149,0.0,1.0,78,0.00,,,0.00,weatherlink.com 1.10,2013-11-17 23:11:00,
2013-11-17 18:26:00,78.1,72.0,30.00,East,101,0.0,0.0,80,0.00,,,0.00,weatherlink.com 1.10,2013-11-17 23:26:00,
2013-11-17 18:41:00,77.7,71.0,30.00,ESE,113,0.0,0.0,80,0.00,,,0.00,weatherlink.com 1.10,2013-11-17 23:41:00,
2013-11-17 18:56:00,77.1,71.0,30.00,ESE,108,0.0,0.0,81,0.00,,,0.00,weatherlink.com 1.10,2013-11-17 23:56:00,
2013-11-17 19:11:00,76.7,71.0,30.00,SE,127,0.0,0.0,83,0.00,,,0.00,weatherlink.com 1.10,2013-11-18 00:11:00,
2013-11-17 19:26:00,76.6,71.0,30.01,ESE,106,0.0,0.0,82,0.00,,,0.00,weatherlink.com 1.10,2013-11-18 00:26:00,
2013-11-17 19:41:00,76.2,71.0,30.01,ESE,108,0.0,0.0,84,0.00,,,0.00,weatherlink.com 1.10,2013-11-18 00:41:00,
2013-11-17 19:56:00,75.6,71.0,30.01,ESE,112,0.0,0.0,84,0.00,,,0.00,weatherlink.com 1.10,2013-11-18 00:56:00,
2013-11-17 20:11:00,74.9,70.0,30.01,ESE,116,0.0,0.0,85,0.00,,,0.00,weatherlink.com 1.10,2013-11-18 01:11:00,
2013-11-17 20:26:00,74.2,70.0,30.02,ESE,109,0.0,0.0,87,0.00,,,0.00,weatherlink.com 1.10,2013-11-18 01:26:00,
2013-11-17 20:41:00,73.7,70.0,30.03,ESE,113,0.0,0.0,88,0.00,,,0.00,weatherlink.com 1.10,2013-11-18 01:41:00,
2013-11-17 20:56:00,73.1,70.0,30.03,ESE,113,0.0,0.0,89,0.00,,,0.00,weatherlink.com 1.10,2013-11-18 01:56:00,
2013-11-17 21:11:00,73.0,70.0,30.03,SE,128,0.0,0.0,90,0.00,,,0.00,weatherlink.com 1.10,2013-11-18 02:11:00,
2013-11-17 21:26:00,72.7,70.0,30.03,ESE,113,0.0,0.0,91,0.00,,,0.00,weatherlink.com 1.10,2013-11-18 02:26:00,
2013-11-17 21:41:00,72.3,70.0,30.02,ESE,107,0.0,0.0,91,0.00,,,0.00,weatherlink.com 1.10,2013-11-18 02:41:00,
2013-11-17 21:56:00,72.2,70.0,30.02,ESE,112,0.0,0.0,92,0.00,,,0.00,weatherlink.com 1.10,2013-11-18 02:56:00,
2013-11-17 22:11:00,71.9,70.0,30.02,ESE,111,0.0,0.0,92,0.00,,,0.00,weatherlink.com 1.10,2013-11-18 03:11:00,
2013-11-17 22:26:00,71.6,70.0,30.03,ESE,117,0.0,0.0,93,0.00,,,0.00,weatherlink.com 1.10,2013-11-18 03:26:00,
2013-11-17 22:41:00,71.3,69.0,30.03,ESE,117,0.0,0.0,93,0.00,,,0.00,weatherlink.com 1.10,2013-11-18 03:41:00,
2013-11-17 22:56:00,71.0,69.0,30.03,East,95,0.0,0.0,93,0.00,,,0.00,weatherlink.com 1.10,2013-11-18 03:56:00,
2013-11-17 23:11:00,70.9,69.0,30.02,East,101,0.0,0.0,94,0.00,,,0.00,weatherlink.com 1.10,2013-11-18 04:11:00,
2013-11-17 23:26:00,71.1,69.0,30.02,East,93,0.0,0.0,94,0.00,,,0.00,weatherlink.com 1.10,2013-11-18 04:26:00,
2013-11-17 23:41:00,71.0,69.0,30.02,ESE,103,0.0,0.0,94,0.00,,,0.00,weatherlink.com 1.10,2013-11-18 04:41:00,
2013-11-17 23:56:00,71.1,70.0,30.01,ESE,108,0.0,0.0,95,0.00,,,0.00,weatherlink.com 1.10,2013-11-18 04:56:00,